Observations for Trim Market St
| Time | AQI | Temp °C | Hum % | Pres Pa | CO μg/m³ | H₂S μg/m³ | NO μg/m³ | NO₂ μg/m³ | O₃ μg/m³ | SO₂ μg/m³ | PM1 μg/m³ | PM2.5 μg/m³ | PM10 μg/m³ |
|---|---|---|---|---|---|---|---|---|---|---|---|---|---|
| Saturday 22 August 2026 | |||||||||||||
| 18:22 | 3 | 22.4 | 39 | 65,491 | 0.21 | 0 | 1.6 | 8.48 | 67.65 | 0 | 2.85 | 7.71 | 9.15 |
| 18:18 | 3 | 22.5 | 38 | 65,517 | 0 | 0 | 1.34 | 9.86 | 93.39 | 0 | 4.28 | 7.72 | 10.78 |
| 18:17 | 3 | 22.5 | 38 | 65,513 | 0 | 0 | 1.34 | 10.52 | 74.28 | 0 | 4.99 | 10.38 | 14.85 |
| 18:15 | 3 | 22.6 | 38 | 65,523 | 0 | 0 | 1.18 | 14.34 | 76.16 | 0 | 2.85 | 7.72 | 9.97 |
| 18:10 | 3 | 22.8 | 39 | 65,568 | 0 | 0 | 1.25 | 7.04 | 69.21 | 0 | 2.14 | 7.19 | 10.78 |
| 18:03 | 3 | 23 | 38 | 65,542 | 0 | 0 | 1.08 | 9.85 | 86.64 | 0 | 2.85 | 8.27 | 10.79 |
| 18:02 | 3 | 23 | 38 | 65,538 | 0 | 0 | 1.08 | 10.03 | 85.24 | 0 | 2.14 | 6.68 | 7.53 |
| 18:01 | 3 | 23.1 | 38 | 65,562 | 0 | 0 | 1.12 | 7.47 | 70.82 | 0 | 2.14 | 7.73 | 11.6 |
| 18:00 | 3 | 23.1 | 38 | 65,562 | 0 | 0 | 1.21 | 12.61 | 87.92 | 0 | 3.56 | 8.8 | 14.05 |
| 17:59 | 3 | 23.1 | 38 | 65,562 | 0 | 0 | 1.14 | 15.18 | 88.18 | 0 | 3.56 | 7.74 | 11.6 |
| 17:58 | 3 | 23.1 | 38 | 65,592 | 0.04 | 0 | 1.14 | 30.55 | 62.71 | 0 | 3.56 | 7.21 | 10.79 |
| 17:57 | 3 | 23.1 | 38 | 65,570 | 0 | 0 | 1.2 | 7.6 | 69.6 | 0 | 2.85 | 8.27 | 9.97 |
| 17:56 | 3 | 23.2 | 38 | 65,570 | 0 | 0 | 1.2 | 7.25 | 70.61 | 0 | 2.85 | 8.79 | 10.78 |
| 17:55 | 3 | 23.2 | 38 | 65,574 | 0 | 0 | 1.12 | 14.76 | 66.66 | 0 | 4.28 | 9.86 | 14.86 |
| 17:54 | 3 | 23.2 | 38 | 65,574 | 0.12 | 0 | 1.13 | 9.51 | 74.17 | 0 | 2.85 | 9.32 | 12.41 |
| 17:53 | 3 | 23.2 | 38 | 65,574 | 0.05 | 0 | 1.21 | 12.18 | 80.24 | 0 | 3.56 | 7.73 | 11.6 |
| 17:52 | 3 | 23.2 | 38 | 65,546 | 0 | 0 | 1.12 | 9.64 | 87.91 | 0 | 2.14 | 7.73 | 9.15 |
| 17:51 | 2 | 23.2 | 38 | 65,511 | 0 | 0 | 1.05 | 8.86 | 73.79 | 0 | 1.43 | 6.14 | 6.71 |
| 17:50 | 2 | 23.2 | 38 | 65,523 | 0 | 0 | 1.06 | 8.3 | 79.89 | 0 | 3.56 | 8.26 | 9.97 |
| 17:48 | 2 | 23.2 | 38 | 65,511 | 0 | 0 | 1.25 | 14.08 | 94.81 | 0 | 2.85 | 7.2 | 8.34 |